Location: Kunchanapalle
(16.4623°N, 80.6176°E)
Time: 08:55:33
(UTC+00:00)

Atlas Centaur 2 - Pass Details

Date: 13 August 2020
Orbit: 459 x 1310 km, 30.4° (Epoch: 18 September)

Event Time Altitude Azimuth Distance (km) Brightness Sun altitude
Exits shadow 22:16:28 19° 324° (NW) 2,176 4.2 -28.8°
Maximum altitude 22:19:32 26° 1° (N) 1,977 4.3 -28.2°
Drops below altitude 10° 22:25:44 10° 54° (NE) 3,121 6.1 -26.8°
Sets 22:29:25 0° 66° (ENE) 4,185 7.2 -26.0°
